Regional Weather Roundup
Issued by NWS

Home | Current Version | Previous Version | Text Only | Print | Product List | Glossary Off
Versions: 1 2 3 4 5 6 7 8 9 10 11 12 13 14 15 16 17 18 19 20 21 22 23 24 25 26 27 28 29 30 31 32 33 34 35 36 37 38 39 40 41 42 43 44 45 46 47 48 49 50

000
ASUS43 KFSD 212302
RWRSD

WEATHER ROUNDUP FOR SOUTH DAKOTA
NATIONAL WEATHER SERVICE SIOUX FALLS SD
500 PM CST FRI NOV 21 2014

NOTE: "FAIR" INDICATES FEW OR NO CLOUDS BELOW 12,000 FEET WITH NO
SIGNIFICANT WEATHER AND/OR OBSTRUCTIONS TO VISIBILITY.


SDZ001>005-009-010-012>017-220000-
NORTHWEST AND NORTH CENTRAL SOUTH DAKOTA

CITY           SKY/WX    TMP DP  RH WIND       PRES   REMARKS
BUFFALO          N/A     47  26  44 W6        29.72S
FAITH            N/A     44  26  49 W9        29.80R
MOBRIDGE       PTCLDY    36  29  75 SE8       29.75R
$$

SDZ012>016-024>037-041>051-057-063-072>074-220000-
SOUTHWEST AND SOUTH CENTRAL SOUTH DAKOTA

CITY           SKY/WX    TMP DP  RH WIND       PRES   REMARKS
RAPID CTY ARPT CLEAR     43  30  60 CALM      29.84R
PIERRE         CLOUDY    36  27  69 SW3       29.81S
CUSTER         CLEAR     41  17  38 CALM      29.85R
PHILIP         MOCLDY    45  31  58 W9        29.84R
PINE RIDGE     PTCLDY    44  28  53 SW7       29.85R
WINNER         FAIR      45  31  58 SW8       29.83F
$$

SDZ004>011-016>023-039-040-220000-
NORTHEAST SOUTH DAKOTA

CITY           SKY/WX    TMP DP  RH WIND       PRES   REMARKS
ABERDEEN       MOCLDY    33  27  78 S9        29.80R WCI  25
WATERTOWN      CLOUDY    33  27  78 S14       29.83R WCI  23
SISSETON         N/A     36  28  73 SW13      29.78F
$$

SDZ017-020-022-023-036>040-048>070-220000-
SOUTHEAST SOUTH DAKOTA

CITY           SKY/WX    TMP DP  RH WIND       PRES   REMARKS
SIOUX FALLS    CLOUDY    35  27  72 S14       29.91S WCI  26
HURON          MOCLDY    36  30  79 S7        29.84S
CHAMBERLAIN    CLOUDY    40  31  71 W5        29.84R
MITCHELL       MOCLDY    38  31  76 SE7       29.87S
YANKTON        PTCLDY    39  28  65 S10       29.92S
$$

ABBREVIATIONS USED IN REMARKS
   TC - TEMPERATURE IN CELSIUS
  WCI - WIND CHILL INDEX
   HX - HEAT INDEX
  VSB - VISIBILITY




USA.gov is the U.S. government's official web portal to all federal, state and local government web resources and services.